Time,TemperatureF,DewpointF,PressureIn,WindDirection,WindDirectionDegrees,WindSpeedMPH,WindSpeedGustMPH,Humidity,HourlyPrecipIn,Conditions,Clouds,dailyrainin,SolarRadiationWatts/m^2,SoftwareType,DateUTC
2013-06-25 00:00:00,77.8,70.0,28.66,South,174,1.0,5.0,77,0.00,FEW,,0.00,0.0,WeatherDisplay:10.37,2013-06-25 05:00:00,
2013-06-25 00:10:00,77.6,69.8,28.66,SSE,162,3.0,9.0,77,0.00,FEW,,0.00,0.0,WeatherDisplay:10.37,2013-06-25 05:10:00,
2013-06-25 00:20:00,77.3,69.5,28.65,South,170,2.0,6.0,77,0.00,FEW,,0.00,0.0,WeatherDisplay:10.37,2013-06-25 05:20:00,
2013-06-25 00:30:00,77.0,69.6,28.65,South,180,0.0,5.0,78,0.00,FEW,,0.00,0.0,WeatherDisplay:10.37,2013-06-25 05:30:00,
2013-06-25 00:40:00,76.7,69.3,28.65,South,174,0.0,6.0,78,0.00,FEW,,0.00,0.0,WeatherDisplay:10.37,2013-06-25 05:40:00,
2013-06-25 00:50:00,76.5,69.5,28.65,South,173,0.0,5.0,79,0.00,FEW,,0.00,0.0,WeatherDisplay:10.37,2013-06-25 05:50:00,
2013-06-25 01:00:00,76.3,69.3,28.65,South,173,1.0,4.0,79,0.00,FEW,,0.00,0.0,WeatherDisplay:10.37,2013-06-25 06:00:00,
2013-06-25 01:10:00,76.0,69.4,28.65,South,173,0.0,1.0,80,0.00,FEW,,0.00,0.0,WeatherDisplay:10.37,2013-06-25 06:10:00,
2013-06-25 01:20:00,75.6,69.0,28.65,South,173,0.0,3.0,80,0.00,FEW,,0.00,0.0,WeatherDisplay:10.37,2013-06-25 06:20:00,
2013-06-25 01:30:00,75.2,69.0,28.65,South,173,0.0,0.0,81,0.00,FEW,,0.00,0.0,WeatherDisplay:10.37,2013-06-25 06:30:00,
2013-06-25 01:40:00,74.8,68.9,28.66,South,173,0.0,2.0,82,0.00,FEW,,0.00,0.0,WeatherDisplay:10.37,2013-06-25 06:40:00,
2013-06-25 01:50:00,74.5,68.6,28.66,South,173,0.0,0.0,82,0.00,FEW,,0.00,0.0,WeatherDisplay:10.37,2013-06-25 06:50:00,
2013-06-25 02:00:00,74.1,68.6,28.66,South,173,0.0,0.0,83,0.00,FEW,,0.00,0.0,WeatherDisplay:10.37,2013-06-25 07:00:00,
2013-06-25 02:10:00,73.8,68.7,28.66,South,173,0.0,0.0,84,0.00,FEW,,0.00,0.0,WeatherDisplay:10.37,2013-06-25 07:10:00,
2013-06-25 02:20:00,73.4,68.3,28.66,South,173,0.0,0.0,84,0.00,FEW,,0.00,0.0,WeatherDisplay:10.37,2013-06-25 07:20:00,
2013-06-25 02:30:00,73.1,68.3,28.66,South,173,0.0,0.0,85,0.00,FEW,,0.00,0.0,WeatherDisplay:10.37,2013-06-25 07:30:00,
2013-06-25 02:40:00,72.8,68.4,28.66,South,173,0.0,0.0,86,0.00,FEW,,0.00,0.0,WeatherDisplay:10.37,2013-06-25 07:40:00,
2013-06-25 02:50:00,72.3,68.2,28.66,South,173,0.0,0.0,87,0.00,FEW,,0.00,0.0,WeatherDisplay:10.37,2013-06-25 07:50:00,
2013-06-25 03:00:00,72.0,67.9,28.66,South,173,0.0,0.0,87,0.00,FEW,,0.00,0.0,WeatherDisplay:10.37,2013-06-25 08:00:00,
2013-06-25 03:10:00,71.8,68.0,28.65,South,173,0.0,0.0,88,0.00,FEW,,0.00,0.0,WeatherDisplay:10.37,2013-06-25 08:10:00,
2013-06-25 03:20:00,71.6,67.8,28.65,South,173,0.0,0.0,88,0.00,FEW,,0.00,0.0,WeatherDisplay:10.37,2013-06-25 08:20:00,
2013-06-25 03:30:00,71.5,68.1,28.65,South,173,0.0,0.0,89,0.00,FEW,,0.00,0.0,WeatherDisplay:10.37,2013-06-25 08:30:00,
2013-06-25 03:40:00,71.4,68.0,28.64,South,173,0.0,0.0,89,0.00,FEW,,0.00,0.0,WeatherDisplay:10.37,2013-06-25 08:40:00,
2013-06-25 03:50:00,71.2,67.8,28.63,South,173,0.0,1.0,89,0.00,FEW,,0.00,0.0,WeatherDisplay:10.37,2013-06-25 08:50:00,
2013-06-25 03:59:00,71.1,67.7,28.64,South,173,0.0,0.0,89,0.00,FEW,,0.00,0.0,WeatherDisplay:10.37,2013-06-25 08:59:00,
2013-06-25 04:10:00,71.0,67.5,28.64,South,173,0.0,1.0,89,0.00,FEW,,0.00,0.0,WeatherDisplay:10.37,2013-06-25 09:10:00,
2013-06-25 04:20:00,71.2,68.1,28.63,South,173,0.0,3.0,90,0.00,FEW,,0.00,0.0,WeatherDisplay:10.37,2013-06-25 09:20:00,
2013-06-25 04:30:00,71.7,68.3,28.63,South,169,2.0,4.0,89,0.00,FEW,,0.00,0.0,WeatherDisplay:10.37,2013-06-25 09:30:00,
2013-06-25 04:40:00,71.9,68.1,28.62,SSE,163,1.0,5.0,88,0.00,FEW,,0.00,0.0,WeatherDisplay:10.37,2013-06-25 09:40:00,
2013-06-25 04:50:00,71.8,68.1,28.63,SSE,163,0.0,3.0,88,0.00,FEW,,0.00,0.0,WeatherDisplay:10.37,2013-06-25 09:50:00,
2013-06-25 04:59:00,71.6,67.9,28.63,SSE,163,0.0,1.0,88,0.00,FEW,,0.00,0.0,WeatherDisplay:10.37,2013-06-25 09:59:00,
2013-06-25 05:10:00,71.5,68.1,28.63,SSE,163,0.0,3.0,89,0.00,FEW,,0.00,0.0,WeatherDisplay:10.37,2013-06-25 10:10:00,
2013-06-25 05:20:00,71.6,68.2,28.63,SSE,163,0.0,3.0,89,0.00,FEW,,0.00,0.0,WeatherDisplay:10.37,2013-06-25 10:20:00,
2013-06-25 05:30:00,71.7,68.3,28.63,SSE,163,0.0,3.0,89,0.00,FEW,,0.00,0.0,WeatherDisplay:10.37,2013-06-25 10:30:00,
2013-06-25 05:40:00,72.1,68.7,28.64,SSE,163,0.0,4.0,89,0.00,FEW,,0.00,0.0,WeatherDisplay:10.37,2013-06-25 10:40:00,
2013-06-25 05:50:00,72.3,68.5,28.63,SSE,162,2.0,5.0,88,0.00,FEW,,0.00,0.0,WeatherDisplay:10.37,2013-06-25 10:50:00,
2013-06-25 05:59:00,72.2,68.4,28.63,SSE,161,1.0,5.0,88,0.00,FEW,,0.00,0.0,WeatherDisplay:10.37,2013-06-25 10:59:00,
2013-06-25 06:09:00,72.0,68.6,28.64,SSE,161,1.0,4.0,89,0.00,FEW,,0.00,0.0,WeatherDisplay:10.37,2013-06-25 11:09:00,
2013-06-25 06:19:00,72.0,68.6,28.63,SSE,161,2.0,5.0,89,0.00,FEW,,0.00,0.0,WeatherDisplay:10.37,2013-06-25 11:19:00,
2013-06-25 06:29:00,72.1,68.7,28.64,SSE,159,1.0,4.0,89,0.00,FEW,,0.00,0.0,WeatherDisplay:10.37,2013-06-25 11:29:00,
2013-06-25 06:39:00,72.4,69.0,28.64,SSE,159,0.0,4.0,89,0.00,FEW,,0.00,0.0,WeatherDisplay:10.37,2013-06-25 11:39:00,
2013-06-25 06:49:00,72.6,69.2,28.65,SSE,161,0.0,2.0,89,0.00,FEW,,0.00,0.0,WeatherDisplay:10.37,2013-06-25 11:49:00,
2013-06-25 06:59:00,73.1,69.7,28.65,SSE,162,0.0,4.0,89,0.00,FEW,,0.00,0.0,WeatherDisplay:10.37,2013-06-25 11:59:00,
2013-06-25 07:09:00,73.8,70.0,28.65,SE,146,1.0,10.0,88,0.00,FEW,,0.00,0.0,WeatherDisplay:10.37,2013-06-25 12:09:00,
2013-06-25 07:19:00,74.3,70.2,28.65,SSE,164,1.0,8.0,87,0.00,FEW,,0.00,0.0,WeatherDisplay:10.37,2013-06-25 12:19:00,
2013-06-25 07:29:00,74.9,70.7,28.65,SSE,167,1.0,12.0,87,0.00,FEW,,0.00,0.0,WeatherDisplay:10.37,2013-06-25 12:29:00,
2013-06-25 07:39:00,75.1,70.6,28.65,South,171,3.0,8.0,86,0.00,FEW,,0.00,0.0,WeatherDisplay:10.37,2013-06-25 12:39:00,
2013-06-25 07:49:00,75.5,70.7,28.65,South,181,5.0,12.0,85,0.00,FEW,,0.00,0.0,WeatherDisplay:10.37,2013-06-25 12:49:00,
2013-06-25 07:59:00,76.0,71.2,28.64,SSE,168,2.0,9.0,85,0.00,FEW,,0.00,0.0,WeatherDisplay:10.37,2013-06-25 12:59:00,
2013-06-25 08:10:00,76.5,71.7,28.64,South,175,3.0,9.0,85,0.00,FEW,,0.00,0.0,WeatherDisplay:10.37,2013-06-25 13:10:00,
2013-06-25 08:20:00,76.9,71.3,28.64,South,177,7.0,14.0,83,0.00,FEW,,0.00,0.0,WeatherDisplay:10.37,2013-06-25 13:20:00,
2013-06-25 08:30:00,77.3,71.7,28.65,South,189,2.0,12.0,83,0.00,FEW,,0.00,0.0,WeatherDisplay:10.37,2013-06-25 13:30:00,
2013-06-25 08:40:00,77.7,71.8,28.65,South,174,5.0,12.0,82,0.00,FEW,,0.00,0.0,WeatherDisplay:10.37,2013-06-25 13:40:00,
2013-06-25 08:50:00,78.0,72.1,28.66,SSW,201,1.0,9.0,82,0.00,FEW,,0.00,0.0,WeatherDisplay:10.37,2013-06-25 13:50:00,
2013-06-25 09:00:00,78.0,72.4,28.66,SSE,165,2.0,12.0,83,0.00,FEW,,0.00,0.0,WeatherDisplay:10.37,2013-06-25 14:00:00,
2013-06-25 09:10:00,78.7,73.1,28.66,South,177,3.0,10.0,83,0.00,FEW,,0.00,0.0,WeatherDisplay:10.37,2013-06-25 14:10:00,
2013-06-25 09:20:00,79.3,73.0,28.66,SSW,203,2.0,10.0,81,0.00,FEW,,0.00,0.0,WeatherDisplay:10.37,2013-06-25 14:20:00,
2013-06-25 09:30:00,80.2,73.1,28.66,South,175,7.0,14.0,79,0.00,FEW,,0.00,0.0,WeatherDisplay:10.37,2013-06-25 14:30:00,
2013-06-25 09:40:00,80.7,73.2,28.65,South,182,7.0,15.0,78,0.00,FEW,,0.00,0.0,WeatherDisplay:10.37,2013-06-25 14:40:00,
2013-06-25 09:50:00,81.5,74.0,28.65,SSW,212,3.0,15.0,78,0.00,FEW,,0.00,0.0,WeatherDisplay:10.37,2013-06-25 14:50:00,
2013-06-25 10:00:00,81.8,73.5,28.65,SSW,206,5.0,12.0,76,0.00,FEW,,0.00,0.0,WeatherDisplay:10.37,2013-06-25 15:00:00,
2013-06-25 10:10:00,81.7,73.4,28.65,SSW,202,6.0,13.0,76,0.00,FEW,,0.00,0.0,WeatherDisplay:10.37,2013-06-25 15:10:00,
2013-06-25 10:20:00,82.2,73.9,28.64,SSE,160,6.0,13.0,76,0.00,FEW,,0.00,0.0,WeatherDisplay:10.37,2013-06-25 15:20:00,
2013-06-25 10:30:00,82.7,74.0,28.64,SSW,195,5.0,14.0,75,0.00,FEW,,0.00,0.0,WeatherDisplay:10.37,2013-06-25 15:30:00,
2013-06-25 10:40:00,83.2,74.1,28.64,SSW,200,3.0,17.0,74,0.00,FEW,,0.00,0.0,WeatherDisplay:10.37,2013-06-25 15:40:00,
2013-06-25 10:50:00,84.0,74.4,28.64,SSW,198,5.0,17.0,73,0.00,FEW,,0.00,0.0,WeatherDisplay:10.37,2013-06-25 15:50:00,
2013-06-25 11:00:00,84.3,74.7,28.64,SSW,202,2.0,13.0,73,0.00,FEW,,0.00,0.0,WeatherDisplay:10.37,2013-06-25 16:00:00,
2013-06-25 11:10:00,84.5,74.1,28.64,South,176,3.0,13.0,71,0.00,FEW,,0.00,0.0,WeatherDisplay:10.37,2013-06-25 16:10:00,
2013-06-25 11:20:00,84.8,73.9,28.64,South,182,7.0,13.0,70,0.00,FEW,,0.00,0.0,WeatherDisplay:10.37,2013-06-25 16:20:00,
2013-06-25 11:30:00,84.9,73.1,28.64,South,188,8.0,16.0,68,0.00,FEW,,0.00,0.0,WeatherDisplay:10.37,2013-06-25 16:30:00,
2013-06-25 11:40:00,85.5,73.7,28.65,South,174,5.0,15.0,68,0.00,FEW,,0.00,0.0,WeatherDisplay:10.37,2013-06-25 16:40:00,
2013-06-25 11:50:00,85.8,73.1,28.65,South,176,7.0,18.0,66,0.00,FEW,,0.00,0.0,WeatherDisplay:10.37,2013-06-25 16:50:00,
2013-06-25 12:00:00,86.1,72.5,28.65,SSW,197,6.0,16.0,64,0.00,FEW,,0.00,0.0,WeatherDisplay:10.37,2013-06-25 17:00:00,
2013-06-25 12:10:00,86.5,73.3,28.65,South,190,5.0,13.0,65,0.00,FEW,,0.00,0.0,WeatherDisplay:10.37,2013-06-25 17:10:00,
2013-06-25 12:20:00,87.2,74.0,28.65,SSW,194,2.0,12.0,65,0.00,FEW,,0.00,0.0,WeatherDisplay:10.37,2013-06-25 17:20:00,
2013-06-25 12:30:00,87.5,72.4,28.65,SSW,194,3.0,12.0,61,0.00,FEW,,0.00,0.0,WeatherDisplay:10.37,2013-06-25 17:30:00,
2013-06-25 12:40:00,87.6,72.5,28.65,SSW,207,3.0,13.0,61,0.00,FEW,,0.00,0.0,WeatherDisplay:10.37,2013-06-25 17:40:00,
2013-06-25 12:50:00,87.7,71.1,28.64,SSW,193,5.0,13.0,58,0.00,FEW,,0.00,0.0,WeatherDisplay:10.37,2013-06-25 17:50:00,
2013-06-25 12:59:00,88.2,73.0,28.64,SW,229,5.0,12.0,61,0.00,FEW,,0.00,0.0,WeatherDisplay:10.37,2013-06-25 17:59:00,
2013-06-25 13:10:00,87.8,71.7,28.64,South,179,5.0,15.0,59,0.00,FEW,,0.00,0.0,WeatherDisplay:10.37,2013-06-25 18:10:00,
2013-06-25 13:20:00,87.8,72.7,28.64,SW,219,1.0,12.0,61,0.00,FEW,,0.00,0.0,WeatherDisplay:10.37,2013-06-25 18:20:00,
2013-06-25 13:30:00,87.6,71.5,28.64,SSW,196,3.0,14.0,59,0.00,FEW,,0.00,0.0,WeatherDisplay:10.37,2013-06-25 18:30:00,
2013-06-25 13:40:00,87.7,71.1,28.64,South,174,2.0,12.0,58,0.00,FEW,,0.00,0.0,WeatherDisplay:10.37,2013-06-25 18:40:00,
2013-06-25 13:50:00,87.9,71.3,28.63,SSW,210,3.0,10.0,58,0.00,FEW,,0.00,0.0,WeatherDisplay:10.37,2013-06-25 18:50:00,
2013-06-25 13:59:00,88.2,70.5,28.63,SSW,203,5.0,16.0,56,0.00,FEW,,0.00,0.0,WeatherDisplay:10.37,2013-06-25 18:59:00,
2013-06-25 14:10:00,88.1,70.4,28.62,SSW,203,2.0,13.0,56,0.00,FEW,,0.00,0.0,WeatherDisplay:10.37,2013-06-25 19:10:00,
2013-06-25 14:19:00,88.4,71.2,28.62,South,190,3.0,12.0,57,0.00,FEW,,0.00,0.0,WeatherDisplay:10.37,2013-06-25 19:19:00,
2013-06-25 14:30:00,88.8,71.6,28.62,SSW,200,6.0,14.0,57,0.00,FEW,,0.00,0.0,WeatherDisplay:10.37,2013-06-25 19:30:00,
2013-06-25 14:39:00,88.6,70.4,28.61,SW,222,3.0,12.0,55,0.00,FEW,,0.00,0.0,WeatherDisplay:10.37,2013-06-25 19:39:00,
2013-06-25 14:50:00,87.8,70.1,28.61,South,189,2.0,12.0,56,0.00,FEW,,0.00,0.0,WeatherDisplay:10.37,2013-06-25 19:50:00,
2013-06-25 14:59:00,87.6,71.0,28.60,South,187,3.0,10.0,58,0.00,FEW,,0.00,0.0,WeatherDisplay:10.37,2013-06-25 19:59:00,
2013-06-25 15:09:00,87.4,70.8,28.58,South,171,6.0,13.0,58,0.00,FEW,,0.00,0.0,WeatherDisplay:10.37,2013-06-25 20:09:00,
2013-06-25 15:20:00,87.3,70.7,28.58,South,171,5.0,12.0,58,0.00,FEW,,0.00,0.0,WeatherDisplay:10.37,2013-06-25 20:20:00,
2013-06-25 15:29:00,87.2,71.1,28.57,South,169,1.0,10.0,59,0.00,FEW,,0.00,0.0,WeatherDisplay:10.37,2013-06-25 20:29:00,
2013-06-25 15:39:00,87.1,70.5,28.56,South,169,3.0,14.0,58,0.00,FEW,,0.00,0.0,WeatherDisplay:10.37,2013-06-25 20:39:00,
2013-06-25 15:49:00,86.9,70.8,28.56,South,174,1.0,13.0,59,0.00,FEW,,0.00,0.0,WeatherDisplay:10.37,2013-06-25 20:49:00,
2013-06-25 15:59:00,87.4,70.8,28.56,SSE,158,3.0,13.0,58,0.00,FEW,,0.00,0.0,WeatherDisplay:10.37,2013-06-25 20:59:00,
2013-06-25 16:09:00,88.2,72.0,28.56,SSE,164,1.0,14.0,59,0.00,FEW,,0.00,0.0,WeatherDisplay:10.37,2013-06-25 21:09:00,
2013-06-25 16:19:00,88.4,70.2,28.55,SSE,163,8.0,15.0,55,0.00,FEW,,0.00,0.0,WeatherDisplay:10.37,2013-06-25 21:19:00,
2013-06-25 16:29:00,88.8,71.1,28.55,South,169,3.0,14.0,56,0.00,FEW,,0.00,0.0,WeatherDisplay:10.37,2013-06-25 21:29:00,
2013-06-25 16:39:00,88.8,70.0,28.55,SSW,192,7.0,16.0,54,0.00,FEW,,0.00,0.0,WeatherDisplay:10.37,2013-06-25 21:39:00,
2013-06-25 16:49:00,88.6,70.9,28.56,South,186,3.0,14.0,56,0.00,FEW,,0.00,0.0,WeatherDisplay:10.37,2013-06-25 21:49:00,
2013-06-25 16:59:00,88.6,69.3,28.56,South,189,8.0,14.0,53,0.00,FEW,,0.00,0.0,WeatherDisplay:10.37,2013-06-25 21:59:00,
2013-06-25 17:09:00,88.3,69.5,28.55,SSW,198,6.0,21.0,54,0.00,FEW,,0.00,0.0,WeatherDisplay:10.37,2013-06-25 22:09:00,
2013-06-25 17:19:00,88.1,69.9,28.55,South,189,5.0,20.0,55,0.00,FEW,,0.00,0.0,WeatherDisplay:10.37,2013-06-25 22:19:00,
2013-06-25 17:29:00,87.8,69.1,28.55,SSW,198,3.0,16.0,54,0.00,FEW,,0.00,0.0,WeatherDisplay:10.37,2013-06-25 22:29:00,
2013-06-25 17:39:00,87.7,69.5,28.54,SSW,192,7.0,16.0,55,0.00,FEW,,0.00,0.0,WeatherDisplay:10.37,2013-06-25 22:39:00,
2013-06-25 17:49:00,87.6,71.0,28.53,South,186,1.0,12.0,58,0.00,FEW,,0.00,0.0,WeatherDisplay:10.37,2013-06-25 22:49:00,
2013-06-25 17:59:00,87.5,69.9,28.53,South,171,3.0,14.0,56,0.00,FEW,,0.00,0.0,WeatherDisplay:10.37,2013-06-25 22:59:00,
2013-06-25 18:09:00,86.8,69.2,28.53,South,173,7.0,14.0,56,0.00,FEW,,0.00,0.0,WeatherDisplay:10.37,2013-06-25 23:09:00,
2013-06-25 18:19:00,86.3,69.3,28.52,South,180,5.0,17.0,57,0.00,FEW,,0.00,0.0,WeatherDisplay:10.37,2013-06-25 23:19:00,
2013-06-25 18:29:00,86.0,70.0,28.52,South,176,3.0,16.0,59,0.00,FEW,,0.00,0.0,WeatherDisplay:10.37,2013-06-25 23:29:00,
2013-06-25 18:39:00,85.3,69.8,28.52,South,186,3.0,12.0,60,0.00,FEW,,0.00,0.0,WeatherDisplay:10.37,2013-06-25 23:39:00,
2013-06-25 18:49:00,84.6,69.7,28.52,South,184,3.0,14.0,61,0.00,FEW,,0.00,0.0,WeatherDisplay:10.37,2013-06-25 23:49:00,
2013-06-25 18:59:00,84.2,69.3,28.52,SSE,166,3.0,13.0,61,0.00,FEW,,0.00,0.0,WeatherDisplay:10.37,2013-06-25 23:59:00,
2013-06-25 19:09:00,84.0,69.1,28.52,South,179,3.0,12.0,61,0.00,FEW,,0.00,0.0,WeatherDisplay:10.37,2013-06-26 00:09:00,
2013-06-25 19:19:00,83.9,69.0,28.52,South,181,6.0,10.0,61,0.00,FEW,,0.00,0.0,WeatherDisplay:10.37,2013-06-26 00:19:00,
2013-06-25 19:29:00,83.8,69.4,28.52,South,179,6.0,13.0,62,0.00,FEW,,0.00,0.0,WeatherDisplay:10.37,2013-06-26 00:29:00,
2013-06-25 19:39:00,83.4,69.5,28.52,South,191,1.0,12.0,63,0.00,FEW,,0.00,0.0,WeatherDisplay:10.37,2013-06-26 00:39:00,
2013-06-25 19:49:00,83.1,69.6,28.52,South,171,1.0,10.0,64,0.00,FEW,,0.00,0.0,WeatherDisplay:10.37,2013-06-26 00:49:00,
2013-06-25 19:59:00,82.6,69.7,28.52,SSE,166,1.0,9.0,65,0.00,FEW,,0.00,0.0,WeatherDisplay:10.37,2013-06-26 00:59:00,
2013-06-25 20:09:00,82.4,69.4,28.52,South,176,5.0,12.0,65,0.00,FEW,,0.00,0.0,WeatherDisplay:10.37,2013-06-26 01:09:00,
2013-06-25 20:19:00,82.3,69.8,28.52,South,176,7.0,12.0,66,0.00,FEW,,0.00,0.0,WeatherDisplay:10.37,2013-06-26 01:19:00,
2013-06-25 20:29:00,82.2,69.7,28.52,South,176,1.0,11.0,66,0.00,FEW,,0.00,0.0,WeatherDisplay:10.37,2013-06-26 01:29:00,
2013-06-25 20:39:00,82.0,70.0,28.52,South,174,3.0,10.0,67,0.00,FEW,,0.00,0.0,WeatherDisplay:10.37,2013-06-26 01:39:00,
2013-06-25 20:49:00,81.9,69.4,28.53,South,191,3.0,12.0,66,0.00,FEW,,0.00,0.0,WeatherDisplay:10.37,2013-06-26 01:49:00,
2013-06-25 20:59:00,81.7,69.2,28.53,South,179,3.0,12.0,66,0.00,FEW,,0.00,0.0,WeatherDisplay:10.37,2013-06-26 01:59:00,
2013-06-25 21:09:00,81.6,69.1,28.53,South,175,5.0,14.0,66,0.00,FEW,,0.00,0.0,WeatherDisplay:10.37,2013-06-26 02:09:00,
2013-06-25 21:19:00,81.4,69.4,28.53,SSE,164,5.0,12.0,67,0.00,FEW,,0.00,0.0,WeatherDisplay:10.37,2013-06-26 02:19:00,
2013-06-25 21:29:00,81.1,69.1,28.54,South,189,3.0,12.0,67,0.00,FEW,,0.00,0.0,WeatherDisplay:10.37,2013-06-26 02:29:00,
2013-06-25 21:39:00,80.8,69.2,28.54,South,174,3.0,12.0,68,0.00,FEW,,0.00,0.0,WeatherDisplay:10.37,2013-06-26 02:39:00,
2013-06-25 21:49:00,80.5,69.0,28.55,South,183,3.0,7.0,68,0.00,FEW,,0.00,0.0,WeatherDisplay:10.37,2013-06-26 02:49:00,
2013-06-25 21:59:00,80.2,69.1,28.56,South,188,0.0,7.0,69,0.00,FEW,,0.00,0.0,WeatherDisplay:10.37,2013-06-26 02:59:00,
2013-06-25 22:09:00,80.0,68.9,28.56,South,180,3.0,6.0,69,0.00,FEW,,0.00,0.0,WeatherDisplay:10.37,2013-06-26 03:09:00,
2013-06-25 22:19:00,79.7,69.1,28.56,SSW,196,0.0,4.0,70,0.00,FEW,,0.00,0.0,WeatherDisplay:10.37,2013-06-26 03:19:00,
2013-06-25 22:29:00,79.4,69.2,28.56,South,177,0.0,5.0,71,0.00,FEW,,0.00,0.0,WeatherDisplay:10.37,2013-06-26 03:29:00,
2013-06-25 22:39:00,79.3,69.1,28.56,South,171,5.0,8.0,71,0.00,FEW,,0.00,0.0,WeatherDisplay:10.37,2013-06-26 03:39:00,
2013-06-25 22:49:00,79.2,69.0,28.56,South,170,1.0,5.0,71,0.00,FEW,,0.00,0.0,WeatherDisplay:10.37,2013-06-26 03:49:00,
2013-06-25 22:59:00,79.1,69.3,28.56,South,180,3.0,7.0,72,0.00,FEW,,0.00,0.0,WeatherDisplay:10.37,2013-06-26 03:59:00,
2013-06-25 23:09:00,78.9,69.1,28.56,South,173,2.0,6.0,72,0.00,FEW,,0.00,0.0,WeatherDisplay:10.37,2013-06-26 04:09:00,
2013-06-25 23:19:00,78.6,69.2,28.56,South,173,0.0,5.0,73,0.00,FEW,,0.00,0.0,WeatherDisplay:10.37,2013-06-26 04:19:00,
2013-06-25 23:29:00,78.2,68.9,28.56,South,173,0.0,3.0,73,0.00,FEW,,0.00,0.0,WeatherDisplay:10.37,2013-06-26 04:29:00,
2013-06-25 23:39:00,77.8,68.9,28.56,South,173,0.0,4.0,74,0.00,FEW,,0.00,0.0,WeatherDisplay:10.37,2013-06-26 04:39:00,
2013-06-25 23:49:00,77.6,69.0,28.56,South,172,2.0,5.0,75,0.00,FEW,,0.00,0.0,WeatherDisplay:10.37,2013-06-26 04:49:00,
2013-06-25 23:59:00,77.3,68.8,28.56,SSE,161,1.0,5.0,75,0.00,FEW,,0.00,0.0,WeatherDisplay:10.37,2013-06-26 04:59:00,